Port Isabel, TX

9:47 PM CDT on June 24, 2017 (GMT -0500)
Port Isabel-Cameron County

Weather History for KPIL - November, 2013

Change the Weather History Date:

Thursday, November 14, 2013

  Actual Average (KBRO) Record (KBRO)
Temperature  
Mean Temperature 60 °F -  
Max Temperature 70 °F 77 °F 90 °F (1906)
Min Temperature 51 °F 59 °F 31 °F (1901)
Degree Days  
Heating Degree Days 4    
Growing Degree Days 10 (Base 50)    
Moisture  
Dew Point 51 °F    
Average Humidity 72    
Maximum Humidity 86    
Minimum Humidity 59    
Precipitation  
Precipitation 0.00 in - - ()
Sea Level Pressure  
Sea Level Pressure 30.17 in    
Wind  
Wind Speed 7 mph (NNW)    
Max Wind Speed 10 mph    
Max Gust Speed -    
Visibility 9 miles    
Events      
Averages and records for this station are not official NWS values.
T = Trace of Precipitation, MM = Missing Value Source: NWS Daily Summary

Daily Weather History Graph

Daily Weather History Graph

Search for Another Location

Airport or City:

Trip Planner

Search our weather history database for the weather conditions in past years. The results will help you decide how hot, cold, wet, or windy it might be!

Date:

Astronomy

Nov. 14, 2013 Rise Set
Actual Time 6:47 AM CST 5:40 PM CST
Civil Twilight 6:23 AM CST 6:04 PM CST
Nautical Twilight 5:55 AM CST 6:32 PM CST
Astronomical Twilight 5:27 AM CST 6:59 PM CST
Moon 3:49 PM CST (11/14) 3:59 AM CST (11/14)
Length of Visible Light 11h 41m
Length of Day
10h 52m
Waxing Gibbous, 92% of the Moon is Illuminated
Nov 14
Waxing Gibbous
Nov 17
Full
Nov 25
Last Quarter
Dec 2
New
Dec 9
First Quarter

Hourly Weather History & Observations

Time (CST) Temp. Dew Point Humidity Pressure Visibility Wind Dir Wind Speed Gust Speed Precip Events Conditions
12:53 AM 51.1 °F 41.0 °F 68% 30.34 in 10.0 mi NNW 8.1 mph - N/A   Overcast
1:53 AM 53.1 °F 42.1 °F 66% 30.32 in 10.0 mi NNW 9.2 mph - N/A   Overcast
2:53 AM 53.1 °F 42.1 °F 66% 30.29 in 10.0 mi NNW 10.4 mph - N/A   Mostly Cloudy
3:53 AM 52.0 °F 42.1 °F 69% 30.27 in 10.0 mi NNW 8.1 mph - N/A   Overcast
4:53 AM 51.1 °F 42.1 °F 71% 30.26 in 10.0 mi NNW 8.1 mph - N/A   Clear
5:53 AM 51.1 °F 42.1 °F 71% 30.25 in 10.0 mi NNW 8.1 mph - N/A   Clear
6:53 AM 51.1 °F 44.1 °F 77% 30.25 in 10.0 mi NNW 8.1 mph - N/A   Clear
7:53 AM 51.1 °F 43.0 °F 74% 30.25 in 8.0 mi NNW 9.2 mph - N/A   Clear
8:53 AM 55.9 °F 48.0 °F 75% 30.24 in 8.0 mi NNW 8.1 mph - N/A   Clear
9:53 AM 62.1 °F 51.1 °F 67% 30.23 in 8.0 mi NNW 3.5 mph - N/A   Clear
10:53 AM 66.0 °F 55.0 °F 68% 30.22 in 8.0 mi NW 6.9 mph - N/A   Clear
11:53 AM 68.0 °F 55.0 °F 63% 30.19 in 8.0 mi NW 3.5 mph - N/A   Clear
12:53 PM 70.0 °F 55.0 °F 59% 30.15 in 8.0 mi East 8.1 mph - N/A   Clear
1:53 PM 70.0 °F 55.9 °F 61% 30.12 in 8.0 mi East 6.9 mph - N/A   Clear
2:53 PM 70.0 °F 55.9 °F 61% 30.09 in 8.0 mi East 5.8 mph - N/A   Clear
3:53 PM 69.1 °F 55.9 °F 63% 30.07 in 8.0 mi ESE 6.9 mph - N/A   Clear
4:53 PM 68.0 °F 59.0 °F 73% 30.05 in 8.0 mi ESE 8.1 mph - N/A   Scattered Clouds
5:53 PM 68.0 °F 59.0 °F 73% 30.04 in 9.0 mi SE 8.1 mph - N/A   Mostly Cloudy
6:53 PM 66.9 °F 60.1 °F 79% 30.06 in 9.0 mi Calm Calm - N/A   Mostly Cloudy
7:53 PM 66.0 °F 60.1 °F 81% 30.07 in 9.0 mi Calm Calm - N/A   Scattered Clouds
8:53 PM 63.0 °F 57.9 °F 84% 30.07 in 10.0 mi WNW 6.9 mph - N/A   Clear
9:53 PM 61.0 °F 55.9 °F 83% 30.07 in 10.0 mi West 4.6 mph - N/A   Scattered Clouds
10:53 PM 60.1 °F 55.9 °F 86% 30.06 in 10.0 mi WNW 3.5 mph - N/A   Clear
11:53 PM 60.1 °F 55.9 °F 86% 30.04 in 10.0 mi WNW 3.5 mph - N/A   Clear